Back to catalog

CZ-3A DEB

LostGTO
NORAD 35560·DEBRIS·🇨🇳 China

Launched Feb 2, 2007 from Xichang Satellite Launch Center

Loading…

TLE

StaleSource: Space-Track

Epoch: Nov 9, 2025, 11:31 UTC

1 35560U 07003U   25313.48019541  .00006855  00000-0  20130-1 0  9996
2 35560  23.2547 270.2329 7080757 155.5741 268.6838  2.44124813 38664

Track CZ-3A DEB in real time with AllMySat

Download on the App Store